Weather in Djermuk

Armenia     39˚50′25″N   45˚40′13″E
temp.,
°C
wind,
m/s
gust,
m/s
humid.,
%
clouds,
%
prec.,
mm/h
press.,
hPa
HPBL,
m
2 december, wed
wed201:00−7˚ne128818 0.0 102621
04:00−7˚ne228619 0.0 102622
07:00−6˚ne228010 0.0 102621
10:00−3˚nne11785 0.0 102637
13:00−1˚wnw11776 0.0 1024235
16:00−2˚nnw11817 0.0 102389
19:00−5˚ne227323 0.0 102522
22:00−6˚ene226513 0.0 102621
3 december, thu
thu301:00−6˚ne22660 0.0 102721
04:00−6˚ne22670 0.0 102722
07:00−6˚ne22640 0.0 102821
10:00−4˚ne11660 0.0 102831
13:00−1˚w11680 0.0 1027274
16:00−2˚nnw11750 0.0 102581
19:00−6˚ne22690 0.0 102722
22:00−6˚ne22680 0.0 102822
4 december, fri
fri401:00−7˚ne22700 0.0 102822
04:00−7˚ne22660 0.0 102821
07:00−7˚ne226415 0.0 102721
10:00−4˚nne11668 0.0 102837
13:00−2˚wnw11671 0.0 1025268
16:00−3˚nnw11702 0.0 1024193
19:00−7˚ne22730 0.0 102523
22:00−7˚ne12750 0.0 102622
5 december, sat
sat501:00−7˚ne22750 0.0 102623
04:00−8˚ne22710 0.0 102522
07:00−8˚ne22689 0.0 102521
10:00−5˚ne116718 0.0 102539
13:00−3˚w116635 0.0 1023324
16:00−3˚n116925 0.0 1022275
19:00−7˚ene23740 0.0 102339
22:00−8˚ene227711 0.0 102437
6 december, sun
sun601:00−9˚ene22712 0.0 102530
04:00−9˚ene22651 0.0 102528
07:00−9˚ene22660 0.0 102526
10:00−7˚e22742 0.0 102689
13:00−4˚se22726 0.0 1024583
16:00−5˚se127647 0.1 1024423
19:00−8˚ene228997 0.1 102661
22:00−10˚ene227890 0.1 102757